www.pogodaiklimat.ru

АРХИВ ПОГОДЫ в Виннемукке

Время (UTC), дата Ветер
(напр.,м/с)
 
Видим.   Явления Облачность Т
(С)
Тd
(С)
f
(%)
Тe
(С)
Тes
(С)
Комфортность

P
(гПа)

Po
(гПа)
Тmin
(С)
Tmax
(С)
R
(мм)
SD
(см)
23:56 24.03 Ю  16 км    ясно  +11.1  -4.4  33  +9  +11    1022.0  873.2         
00:56 25.03 Ю  16 км    ясно  +8.3  -3.3  44  +6  +7    1022.8  873.5         
01:56 25.03 ЮВ  16 км    ясно  +3.9  -2.8  62  +1  +1    1023.4  873.5         
02:56 25.03 ЮВ  16 км    ясно  +2.2  -2.8  69  -2  -2    1024.0  874.1         
03:56 25.03 В  16 км    ясно  +1.7  -3.3  69  -1  -1    1024.1  874.1         
04:56 25.03 В  16 км    ясно  +1.7  -3.3  69  -3  -3    1023.6  873.8  +0.6  +12.2     
05:56 25.03 ЮВ  16 км    ясно  +1.7  -3.9  66  -3  -3    1023.6  873.8         
06:56 25.03 СВ  16 км    ясно  +1.1  -4.4  67  -4  -4    1023.3  873.8         
07:56 25.03 В  16 км    ясно  +1.7  -3.9  66  -3  -3    1022.6  873.2         
08:56 25.03 В  16 км    ясно  +1.7  -3.9  66  -4  -4    1021.8  872.9         
09:56 25.03 В  16 км    ясно  +1.7  -3.9  66  -4  -4    1021.1  872.4         
10:56 25.03 В  16 км    ясно  +2.2  -4.4  62  -2  -2    1020.3  871.8  -1.1  +2.8     
11:56 25.03 СВ  16 км    ясно  +2.2  -4.4  62  -3  -3    1020.1  871.5         
12:56 25.03 В  16 км    ясно  +1.7  -4.4  64  -4  -4    1020.3  871.2         
13:56 25.03 СВ  16 км    ясно  +4.4  -4.4  53  -0  -0    1020.2  871.2         
14:56 25.03 СВ  16 км    ясно  +6.7  -3.3  49  +3  +3    1020.1  870.9         
15:56 25.03 СВ  16 км    ясно  +9.4  -3.3  41  +7  +10    1019.7  870.9         
16:56 25.03 В  16 км    ясно  +11.7  -3.3  35  +10  +15    1018.8  870.3  +1.1  +11.7     
17:56 25.03 нст  16 км    ясно  +13.9  -3.3  30  +13  +21    1017.5  869.5         
18:56 25.03 ЮВ  16 км    ясно  +15.0  -5.6  24  +13  +16    1016.7  869.2         
19:56 25.03 Ю  7
{10} 
16 км    ясно  +16.7  -6.1  20  +15  +18    1015.3  868.0         
20:56 25.03 Ю  7
{9} 
16 км    ясно  +17.8  -7.2  17  +17  +19    1014.4  867.5         
21:56 25.03 Ю  16 км    ясно  +17.8  -7.8  17  +17  +18    1013.8  867.2         
22:56 25.03 Ю  16 км    ясно  +18.3  -6.7  18  +18  +20    1012.9  866.3  +11.7  +18.3     
23:56 25.03 Ю  16 км    ясно  +17.2  -6.1  20  +17  +19    1012.6  866.0         
00:56 26.03 Ю  16 км    ясно  +13.9  -2.8  31  +13  +13    1013.1  866.0         
01:56 26.03 Ю  16 км    5/0 3300 м
[средняя] 
+12.2  -2.2  37  +10  +10    1012.8  865.7         
02:56 26.03 З  16 км    ясно  +10.0  -3.9  37  +7  +7    1013.7  866.6         
03:56 26.03 СВ  16 км    ясно  +9.4  -3.3  41  +8  +8    1013.6  866.6         
04:56 26.03   16 км    ясно  +5.0  -3.3  55  +5  +5    1013.9  866.9  +4.4  +18.3     
05:56 26.03 нст  16 км    ясно  +3.3  -3.3  62  +1  +1    1014.4  867.2         
06:56 26.03   16 км    2/0 3000 м
[средняя] 
+4.4  -1.7  65  +4  +4    1014.4  867.5         
07:56 26.03 ЮЗ  16 км    2/0 3600 м
[средняя] 
+5.0  -2.2  60  +2  +2    1014.2  867.7         
08:56 26.03   16 км    5/0 3600 м
[средняя] 
+4.4  -2.2  62  +4  +4    1013.8  867.5         
09:56 26.03 СВ  16 км    10/0 3300 м
[средняя] 
+3.9  -1.1  70  +2  +2    1013.6  867.2         
10:56 26.03 С  16 км    8/0 3300 м
[средняя] 
+2.8  -1.1  75  +1  +1    1014.0  867.5  +2.2  +7.2     
11:56 26.03 СВ  16 км    5/0 3300 м
[средняя] 
+3.9  -1.7  67  +2  +2    1014.0  867.5         
12:56 26.03 Ю  16 км    8/0 3000 м
[средняя] 
+1.1  -1.7  82  -4  -4    1015.2  867.7         
13:56 26.03 Ю  16 км    10/0 3300 м
[средняя] 
+5.0  0.0  70  +1  +1    1014.8  867.7         
14:56 26.03 ЮВ  16 км    10/0 3000 м
[средняя] 
+6.1  +0.6  68  +3  +3    1015.3  868.0         
15:56 26.03   16 км    5/0 3000 м
[средняя] 
+10.6  -0.6  46  +10  +14    1014.9  868.0         
16:56 26.03 В  16 км    2/0 3000 м
[средняя] 
+12.8  -0.6  40  +13  +20    1014.6  867.5  +1.1  +12.8     
17:56 26.03 нст  16 км    ясно  +14.4  -1.7  33  +15  +26  опасность
простуды 
1013.9  866.9         
18:56 26.03 нст  16 км    2/0 2550 м
[средняя] 
+15.0  -2.8  29  +15  +24    1013.0  866.3         
19:56 26.03   16 км    8/0 2400 м
[средняя] 
+15.6  -3.3  27  +16  +24    1012.4  866.0         
20:56 26.03   16 км    10/0 3000 м
[средняя] 
+17.2  -3.3  24  +17  +22    1011.3  865.1         
21:56 26.03 Ю  16 км    10/0 3000 м
[средняя] 
+16.7  -2.8  26  +16  +17    1010.9  864.9         
22:56 26.03 ЮЗ  7
{10} 
16 км    10/0 3000 м
[средняя] 
+17.2  -3.3  24  +16  +17    1010.8  864.6  +12.8  +17.8     

 

Местоположение метеостанции Winnemucca Municipal Airport: широта 40.9019 долгота -117.8072 высота над уровнем моря 1311 м.

В архиве по умолчанию представлена погода в Виннемукке за последние 1-2 суток. Обновление информации о фактической погоде в базе происходит ежечасно! Архивные данные за месяц целиком и за предыдущие месяцы Вы можете получить, выбрав интересующий диапазон дат из раскрывающегося списка и нажав кнопку "Ввод!".

Внимание! Архив погоды МЕТАР в базе сайта в настоящее время начинается c 1 января 2011 г. Нет смысла пытаться выбрать более раннюю дату.

Внимание! Время в таблицах - всемирное. Для получения местного времени необходимо прибавить поправку, которая в Виннемукке равна -8 ч.

Ветер - указаны скорость ветра в м/с и направление, откуда дует ветер: С - северный, СВ - северо-восточный, В - восточный, ЮВ - юго-восточный, Ю - южный, ЮЗ - юго-западный, З - западный, СЗ - северо-западный.
Видимость - горизонтальная дальность видимости в метрах или километрах. При видимости от 1 до 10 км при отсутствии осадков обычно наблюдается дымка, при ухудшении видимости до 1 км и менее - туман. В сухую погоду видимость может ухудшаться дымом, пылью или мглою.
Атмосферные явления - указаны явления, наблюдавшиеся в указанный момент времени.
Облачность - указаны через наклонную черту верхняя и нижняя облачность в баллах и высота нижней границы облаков в метрах. Внимание: облачность, как и прочие метеорологические величины в США измеряются автоматическими метеостанциями. Указанные значения в баллах носят условный характер и показывают процент времени, в течение которого, в среднем, лазерный луч высотомера отражался от облаков обратно.
T - Температура воздуха - температура, измеренная на высоте 2 м над землей.
Td - Температура точки росы - температура, при понижении до которой содержащийся в воздухе водяной пар достигнет насыщения.
f - Относительная влажность воздуха - влажноcть воздуха, измеренная на высоте 2 м над землей.
Te - Эффективная температура - температура, которую ощущает одетый по сезону человек в тени. Характеристика душности погоды. При расчете учитывается влияние влажности воздуха и скорости ветра на теплоощущения человека.
Tes - Эффективная температура на солнце - температура, которую ощущает человек, с поправкой на солнечный нагрев. Характеристика знойности погоды. Зависит от высоты солнца над горизонтом, облачности и скорости ветра. Ночью, в пасмурную погоду, а также при ветре 12 м/с и более поправка равна нулю.
P - Атмосферное давление - приведенное к уровню моря атмосферное давление.
Po - Атмосферное давление - измеренное на уровне метеостанции атмосферное давление.
Tmin - Минимальная температура - минимум температуры воздуха на высоте 2 м над землей.
Tmax - Максимальная температура - максимум температуры воздуха на высоте 2 м над землей.
R - Количество осадков - Количество выпавших осадков за 3 или 6 часов, мм.
SD - Снежный покров - Высота снежного покрова, см.